{"data":{"norad_id":53621,"intl_designator":"2022-104AK","name":"STARLINK-4608","alt_names":[],"object_type":"PAYLOAD","status":"ACTIVE","operator":null,"country":"US","launch_date":"2022-08-28","launch_site_code":"AFETR","launch_vehicle":null,"mission":null,"orbit_class":"UNKNOWN","rcs_meters":null,"size_class":null,"mass_kg":null,"dimensions":null,"purposes":["comms"],"wikipedia_slug":null,"has_3d_model":false,"image_url":null,"decayed_at":null,"tle_current":{"epoch":"2026-09-20T21:08:55.414752Z","epoch_age_seconds":49515,"freshness":"FRESH","line1":"1 53621U 22104AK  26263.88119693 -.00001135  00000+0 -22460-4 0  9999","line2":"2 53621  53.1705  65.8926 0001698  42.5958 317.5176 15.34386828225268","mean_motion":15.34386828,"eccentricity":0.0001698,"inclination_deg":53.1705,"raan_deg":65.8926,"arg_perigee_deg":42.5958,"mean_anomaly_deg":317.5176,"bstar":-2.246e-5,"rev_number":22526,"period_min":93.848563720856,"perigee_km":461.58080912655,"apogee_km":463.90397176755,"semimajor_km":6840.879390447,"source":"CELESTRAK","updated_at":"2026-09-21T09:00:32.941577Z"}}}